Location: Bucknum
(43.0208°N, 106.6262°W)
Time: 01:16:16
(UTC+00:00)

Tiangong - Visible Passes

Search period start: 20 January 2022 00:00
Search period end: 30 January 2022 00:00
Orbit: 383 x 386 km, 41.5° (Epoch: 19 January)

Date Brightness Start Highest point End Pass type
(mag) Time Alt. Az. Time Alt. Az. Time Alt. Az.
26 Jan 4.2 02:26:52 10° SSW 02:26:56 10° SSW 02:26:56 10° SSW visible
27 Jan 3.4 01:28:08 10° S 01:29:44 13° SSE 01:30:14 13° SE visible
28 Jan 2.6 02:03:31 10° SW 02:05:39 27° S 02:05:39 27° S visible
29 Jan 2.9 01:04:13 10° SSW 01:06:40 21° SSE 01:08:46 12° ESE visible
29 Jan 3.9 02:40:03 10° WSW 02:40:59 18° WSW 02:40:59 18° WSW visible
